Tracking 32139 objects as of 15-Nov-2025
HD Live streaming from Space Station
objects crossing your sky now

STARLINK-3942

Track STARLINK-3942 now!
10-day predictions
STARLINK-3942 is classified as:


NORAD ID: 52563
Int'l Code: 2022-051AG
Perigee: 545.7 km
Apogee: 547.9 km
Inclination: 53.2 °
Period: 95.4 minutes
Semi major axis: 6917 km
RCS: Unknown
Launch date: May 13, 2022
Source: United States (US)
Launch site: AIR FORCE WESTERN TEST RANGE (AFWTR)
Your satellite tracking list
Your tracking list is empty




NASA's NSSDC Master Catalog

Two Line Element Set (TLE):
1 52563U 22051AG  25319.23758580  .00019183  00000-0  12189-2 0  9994
2 52563  53.2168 287.9148 0001567  78.7654 281.3514 15.08876965194095
Source of the keplerian elements: AFSPC